User: anonymous   Login
Location: Unspecified
(90.0000°S, 0.0000°E)
Time: 16:02:09
(UTC+00:00)
Language:

BUGSAT 1 - Orbit

View from above orbital plane
View from above orbital plane
View from above satellite
View from above satellite

Ground track
Ground track

The orbit data is extracted from the following two-line orbital elements,

1 40014U 14033E   19265.46867320 -.00000091  00000-0 -24809-5 0  9999
2 40014  98.0221 215.1949 0032696 101.9726 258.5158 14.95306778286815
Epoch (UTC): 22 September 2019 11:14:53
Eccentricity: 0.0032696
inclination: 98.0221°
perigee height: 558 km
apogee height: 604 km
right ascension of ascending node: 215.1949°
argument of perigee: 101.9726°
revolutions per day: 14.95306778
mean anomaly at epoch: 258.5158°
orbit number at epoch: 28681

The dashed part of the orbit path shows where the satellite is in the earth's shadow,  

DLR